Regional Weather Roundup
Issued by NWS

Home | Current Version | Previous Version | Graphics & Text | Print | Product List | Glossary On
Versions: 1 2 3 4 5 6 7 8 9 10 11 12 13 14 15 16 17 18 19 20 21 22 23 24 25 26 27 28 29 30 31 32 33 34 35 36 37 38 39 40 41 42 43 44 45 46 47 48 49 50
000
ASUS43 KBIS 281602
RWRND

NORTH DAKOTA REGIONAL WEATHER ROUNDUP
NATIONAL WEATHER SERVICE BISMARCK ND
1100 AM CDT SAT MAY 28 2016

NOTE: "FAIR" INDICATES FEW OR NO CLOUDS BELOW 12,000 FEET WITH NO
SIGNIFICANT WEATHER AND/OR OBSTRUCTIONS TO VISIBILITY.


NDZ001>003-009>011-017-281700-
NORTHWEST NORTH DAKOTA

CITY           SKY/WX    TMP DP  RH WIND       PRES   REMARKS
WILLISTON      CLOUDY    60  52  74 E9        29.90R
MINOT          CLOUDY    61  53  75 N5        29.90S
MINOT AFB      CLOUDY    57  52  84 N3        29.90S
$$

NDZ018>021-031>035-040>046-281700-
SOUTHWEST NORTH DAKOTA

CITY           SKY/WX    TMP DP  RH WIND       PRES   REMARKS
BISMARCK       CLOUDY    66  56  70 NE7       29.88F
DICKINSON      SUNNY     64  48  56 VRB6      29.87S
GARRISON         N/A     60  53  77 E7        29.89S
HETTINGER ARPT SUNNY     67  46  47 CALM      29.89S
$$

NDZ004>008-012>016-024-026-027-054-281700-
NORTHEAST NORTH DAKOTA

CITY           SKY/WX    TMP DP  RH WIND       PRES   REMARKS
GRAND FORKS    PTSUNNY   71  55  56 NE8       29.83S
GRND FRKS AFB  PTSUNNY   69  55  59 NE10      29.84S
DEVILS LAKE    CLOUDY    59  56  89 N8        29.89S
$$

NDZ022-023-025-028>030-036>039-047>053-281700-
SOUTHEAST NORTH DAKOTA

CITY           SKY/WX    TMP DP  RH WIND       PRES   REMARKS
FARGO          CLOUDY    69  57  65 N10       29.81S
JAMESTOWN      CLOUDY    62  58  86 N10       29.86R
$$





USA.gov is the U.S. government's official web portal to all federal, state and local government web resources and services.